This is the latest recevied weather packets stored in our database for station/object WV6L-13. If no packets are shown the sender has not sent any weather packets the latest 10 day(s).
| Time | Temp. | Humidity | Pressure | Rain* | Wind** | Luminosity | Snow |
|---|---|---|---|---|---|---|---|
| 1778141692 | 15.56° C | 38% | 928.2 hPa | - | - | - | - |
| 1778141392 | 15° C | 38% | 928.1 hPa | - | - | - | - |
| 1778141093 | 15.56° C | 38% | 928.2 hPa | - | - | - | - |
| 1778140792 | 15.56° C | 37% | 928.1 hPa | - | - | - | - |
| 1778140492 | 16.11° C | 38% | 928.2 hPa | - | - | - | - |
| 1778140192 | 16.11° C | 38% | 928.1 hPa | - | - | - | - |
| 1778139893 | 16.11° C | 37% | 927.9 hPa | - | - | - | - |
| 1778139592 | 16.11° C | 37% | 928 hPa | - | - | - | - |
| 1778139292 | 16.67° C | 37% | 927.8 hPa | - | - | - | - |
| 1778138993 | 16.11° C | 38% | 927.9 hPa | - | - | - | - |
| 1778138692 | 16.11° C | 37% | 927.9 hPa | - | - | - | - |
| 1778138393 | 16.67° C | 37% | 927.8 hPa | - | - | - | - |
| 1778138093 | 16.67° C | 38% | 927.7 hPa | - | - | - | - |
| 1778137792 | 17.22° C | 36% | 927.9 hPa | - | - | - | - |
| 1778137492 | 17.22° C | 35% | 927.6 hPa | - | - | - | - |
| 1778137193 | 17.22° C | 36% | 927.7 hPa | - | - | - | - |
| 1778136892 | 16.67° C | 36% | 927.6 hPa | - | - | - | - |
| 1778136592 | 17.22° C | 36% | 927.7 hPa | - | - | - | - |
| 1778136292 | 16.67° C | 37% | 927.6 hPa | - | - | - | - |
| 1778135992 | 17.78° C | 36% | 927.7 hPa | - | - | - | - |
| 1778135692 | 17.78° C | 37% | 927.4 hPa | - | - | - | - |
| 1778135392 | 17.78° C | 37% | 927.5 hPa | - | - | - | - |
| 1778135093 | 18.33° C | 36% | 927.4 hPa | - | - | - | - |
| 1778134792 | 18.33° C | 36% | 927.4 hPa | - | - | - | - |
| 1778134493 | 18.33° C | 36% | 927.4 hPa | - | - | - | - |
* Rain since midnight (hover to see other rain measurements)
** Current wind speed in m/s (hover to see current wind gust speed)